Terug naar catalogus

CHECKMATE 1

ActiefMilitairPO
NORAD 56168·PAYLOAD·🇺🇸 United States

Gelanceerd Apr 2, 2023 vanaf Vandenberg Space Force Base

Loading…

Volgende Passages (komende 24 uur)

TLE

VersSource: Space-Track

Epoch: Sep 14, 2026, 04:36 UTC

1 56168U 23050G   26257.19213473  .00000068  00000-0  50350-4 0  9999
2 56168  81.0080 346.6181 0012260 107.8795 252.3700 13.84958852174411

Volg CHECKMATE 1 in realtime met AllMySat

Download on the App Store